When you browse on this site, cookies collect data to enhance your experience and personalize the content and advertising you see.
Visit our Privacy Policy to learn more. By continuing to use the site, you agree to this use of cookies and data.
  • en France
  • Liste des pays
  • À 7 jours
  • Température de l'eau
  • Carte météo
  • Widgets météo
  • user-avatar
    Se connecter

    Météo par heure à Shrewsbury

    Ce jour, 26 Août, Lundi

    Heure Température Précipitation Vent Pression Humidité
    00:00 +18°C° 0 mm 1 m/s 758 mmHg 94%
    01:00 +16°C° 0 mm 1 m/s 758 mmHg 95%
    02:00 +16°C° 0 mm 1 m/s 758 mmHg 95%
    03:00 +16°C° 0 mm 1 m/s 758 mmHg 96%
    04:00 +16°C° 0 mm 1 m/s 758 mmHg 96%
    05:00 +16°C° 0 mm 1 m/s 758 mmHg 96%
    06:00 +15°C° 0 mm 1 m/s 758 mmHg 96%
    07:00 +18°C° 0 mm 1 m/s 758 mmHg 91%
    08:00 +20°C° 0 mm 1 m/s 758 mmHg 86%
    09:00 +21°C° 0 mm 1 m/s 758 mmHg 81%
    10:00 +23°C° 0 mm 1 m/s 758 mmHg 76%
    11:00 +24°C° 0 mm 1 m/s 758 mmHg 70%
    12:00 +26°C° 0 mm 1 m/s 757 mmHg 65%
    13:00 +26°C° 0 mm 2 m/s 757 mmHg 63%
    14:00 +27°C° 0 mm 2 m/s 757 mmHg 61%
    15:00 +27°C° 0 mm 2 m/s 757 mmHg 60%
    16:00 +26°C° 0 mm 2 m/s 757 mmHg 66%
    17:00 +25°C° 0 mm 2 m/s 756 mmHg 72%
    18:00 +24°C° 0 mm 2 m/s 756 mmHg 78%
    19:00 +21°C° 0 mm 2 m/s 757 mmHg 82%
    20:00 +19°C° 0 mm 2 m/s 757 mmHg 87%
    21:00 +17°C° 0 mm 2 m/s 757 mmHg 92%
    22:00 +16°C° 0 mm 1 m/s 757 mmHg 92%
    23:00 +16°C° 0 mm 1 m/s 756 mmHg 93%

    Demain, 27 Août, Mardi

    Heure Température Précipitation Vent Pression Humidité
    00:00 +15°C° 0 mm 0 m/s 756 mmHg 93%
    01:00 +15°C° 0 mm 0 m/s 756 mmHg 92%
    02:00 +15°C° 0 mm 0 m/s 756 mmHg 91%
    03:00 +15°C° 0 mm 0 m/s 756 mmHg 90%
    04:00 +16°C° 0.2 mm 1 m/s 756 mmHg 90%
    05:00 +16°C° 0.2 mm 2 m/s 756 mmHg 90%
    06:00 +16°C° 0.2 mm 2 m/s 756 mmHg 90%
    07:00 +17°C° 0.6 mm 2 m/s 756 mmHg 89%
    08:00 +18°C° 0.6 mm 1 m/s 756 mmHg 88%
    09:00 +19°C° 0.6 mm 1 m/s 756 mmHg 86%
    10:00 +20°C° 0 mm 1 m/s 756 mmHg 81%
    11:00 +20°C° 0 mm 2 m/s 756 mmHg 75%
    12:00 +23°C° 0 mm 2 m/s 755 mmHg 70%
    13:00 +22°C° 0 mm 3 m/s 755 mmHg 69%
    14:00 +22°C° 0 mm 3 m/s 755 mmHg 69%
    15:00 +22°C° 0 mm 3 m/s 755 mmHg 69%
    16:00 +21°C° 0 mm 2 m/s 755 mmHg 72%
    17:00 +20°C° 0 mm 2 m/s 755 mmHg 75%
    18:00 +20°C° 0 mm 1 m/s 755 mmHg 78%
    19:00 +20°C° 0 mm 1 m/s 755 mmHg 79%
    20:00 +19°C° 0 mm 1 m/s 755 mmHg 81%
    21:00 +18°C° 0 mm 1 m/s 755 mmHg 82%
    22:00 +18°C° 0 mm 1 m/s 755 mmHg 82%
    23:00 +18°C° 0 mm 1 m/s 755 mmHg 82%

    Après-demain, 28 Août, Mercredi

    Heure Température Précipitation Vent Pression Humidité
    00:00 +18°C° 0 mm 1 m/s 755 mmHg 82%
    01:00 +18°C° 0 mm 1 m/s 754 mmHg 82%
    02:00 +15°C° 0 mm 0 m/s 754 mmHg 81%
    03:00 +15°C° 0 mm 0 m/s 754 mmHg 80%
    04:00 +15°C° 0.1 mm 0 m/s 754 mmHg 82%
    05:00 +15°C° 0.1 mm 0 m/s 753 mmHg 83%
    06:00 +14°C° 0.1 mm 0 m/s 753 mmHg 84%
    07:00 +16°C° 0 mm 1 m/s 753 mmHg 83%
    08:00 +16°C° 0 mm 1 m/s 753 mmHg 82%
    09:00 +18°C° 0 mm 1 m/s 753 mmHg 81%
    10:00 +18°C° 0 mm 2 m/s 753 mmHg 78%
    11:00 +19°C° 0 mm 3 m/s 753 mmHg 74%
    12:00 +20°C° 0 mm 3 m/s 753 mmHg 70%
    13:00 +19°C° 0.3 mm 4 m/s 752 mmHg 73%
    14:00 +19°C° 0.3 mm 4 m/s 752 mmHg 77%
    15:00 +18°C° 0.3 mm 4 m/s 752 mmHg 80%
    16:00 +18°C° 0.1 mm 4 m/s 752 mmHg 82%
    17:00 +18°C° 0.1 mm 4 m/s 752 mmHg 84%
    18:00 +18°C° 0.1 mm 3 m/s 752 mmHg 86%
    19:00 +17°C° 0 mm 3 m/s 753 mmHg 88%
    20:00 +16°C° 0 mm 3 m/s 753 mmHg 90%
    21:00 +14°C° 0 mm 3 m/s 754 mmHg 92%
    22:00 +14°C° 0 mm 3 m/s 754 mmHg 91%
    23:00 +13°C° 0 mm 3 m/s 754 mmHg 91%

    29 Août, Jeudi

    Heure Température Précipitation Vent Pression Humidité
    00:00 +12°C° 0 mm 3 m/s 755 mmHg 91%
    01:00 +11°C° 0 mm 3 m/s 755 mmHg 91%
    02:00 +12°C° 0 mm 2 m/s 755 mmHg 92%
    03:00 +10°C° 0 mm 2 m/s 756 mmHg 93%
    04:00 +10°C° 0 mm 2 m/s 756 mmHg 92%
    05:00 +10°C° 0 mm 2 m/s 756 mmHg 92%
    06:00 +9°C° 0 mm 2 m/s 757 mmHg 92%
    07:00 +12°C° 0 mm 2 m/s 757 mmHg 85%
    08:00 +14°C° 0 mm 2 m/s 757 mmHg 78%
    09:00 +16°C° 0 mm 3 m/s 758 mmHg 71%
    10:00 +17°C° 0 mm 3 m/s 758 mmHg 67%
    11:00 +18°C° 0 mm 4 m/s 758 mmHg 64%
    12:00 +19°C° 0 mm 4 m/s 758 mmHg 60%
    13:00 +19°C° 0 mm 5 m/s 758 mmHg 61%
    14:00 +19°C° 0 mm 5 m/s 758 mmHg 62%
    15:00 +19°C° 0 mm 5 m/s 758 mmHg 64%
    16:00 +17°C° 0 mm 5 m/s 758 mmHg 68%
    17:00 +17°C° 0 mm 4 m/s 758 mmHg 72%
    18:00 +16°C° 0 mm 3 m/s 758 mmHg 76%
    19:00 +13°C° 0 mm 3 m/s 758 mmHg 80%
    20:00 +12°C° 0 mm 3 m/s 758 mmHg 85%
    21:00 +11°C° 0 mm 3 m/s 759 mmHg 89%
    22:00 +11°C° 0 mm 3 m/s 759 mmHg 91%
    23:00 +10°C° 0 mm 3 m/s 759 mmHg 92%

    30 Août, Vendredi

    Heure Température Précipitation Vent Pression Humidité
    00:00 +10°C° 0 mm 3 m/s 759 mmHg 93%
    01:00 +10°C° 0 mm 3 m/s 758 mmHg 94%
    02:00 +10°C° 0 mm 3 m/s 758 mmHg 94%
    03:00 +10°C° 0 mm 3 m/s 758 mmHg 94%
    04:00 +10°C° 0 mm 3 m/s 758 mmHg 94%
    05:00 +11°C° 0 mm 3 m/s 758 mmHg 93%
    06:00 +11°C° 0 mm 3 m/s 757 mmHg 92%
    07:00 +13°C° 0 mm 4 m/s 757 mmHg 88%
    08:00 +14°C° 0 mm 5 m/s 757 mmHg 84%
    09:00 +16°C° 0 mm 6 m/s 757 mmHg 80%
    10:00 +17°C° 0 mm 6 m/s 757 mmHg 77%
    11:00 +18°C° 0 mm 7 m/s 757 mmHg 75%
    12:00 +18°C° 0 mm 7 m/s 757 mmHg 72%
    13:00 +18°C° 0 mm 7 m/s 756 mmHg 73%
    14:00 +18°C° 0 mm 7 m/s 756 mmHg 73%
    15:00 +18°C° 0 mm 7 m/s 755 mmHg 74%
    16:00 +18°C° 0 mm 7 m/s 755 mmHg 76%
    17:00 +17°C° 0 mm 6 m/s 754 mmHg 78%
    18:00 +17°C° 0 mm 6 m/s 754 mmHg 80%
    19:00 +16°C° 0 mm 6 m/s 754 mmHg 80%
    20:00 +16°C° 0 mm 6 m/s 754 mmHg 81%
    21:00 +16°C° 0 mm 6 m/s 754 mmHg 81%
    22:00 +15°C° 0 mm 6 m/s 753 mmHg 82%
    23:00 +15°C° 0 mm 6 m/s 753 mmHg 83%

    31 Août, Samedi

    Heure Température Précipitation Vent Pression Humidité
    00:00 +15°C° 0 mm 6 m/s 752 mmHg 84%
    01:00 +15°C° 0.4 mm 6 m/s 752 mmHg 87%
    02:00 +15°C° 0.4 mm 6 m/s 752 mmHg 90%
    03:00 +15°C° 0.4 mm 6 m/s 751 mmHg 93%
    04:00 +14°C° 0.3 mm 5 m/s 751 mmHg 93%
    05:00 +14°C° 0.3 mm 4 m/s 752 mmHg 94%
    06:00 +13°C° 0.3 mm 3 m/s 752 mmHg 95%
    07:00 +14°C° 0 mm 3 m/s 752 mmHg 90%
    08:00 +14°C° 0 mm 3 m/s 752 mmHg 85%
    09:00 +14°C° 0 mm 3 m/s 753 mmHg 81%
    10:00 +15°C° 0 mm 4 m/s 753 mmHg 75%
    11:00 +17°C° 0 mm 4 m/s 753 mmHg 70%
    12:00 +18°C° 0 mm 4 m/s 753 mmHg 64%
    13:00 +17°C° 0.1 mm 5 m/s 753 mmHg 62%
    14:00 +17°C° 0.1 mm 5 m/s 753 mmHg 60%
    15:00 +17°C° 0.1 mm 6 m/s 752 mmHg 58%
    16:00 +16°C° 0 mm 6 m/s 753 mmHg 64%
    17:00 +15°C° 0 mm 5 m/s 753 mmHg 70%
    18:00 +14°C° 0 mm 5 m/s 753 mmHg 75%
    19:00 +13°C° 0 mm 4 m/s 754 mmHg 78%
    20:00 +11°C° 0 mm 4 m/s 754 mmHg 80%
    21:00 +10°C° 0 mm 4 m/s 755 mmHg 83%
    22:00 +10°C° 0 mm 4 m/s 755 mmHg 84%
    23:00 +10°C° 0 mm 4 m/s 755 mmHg 86%
    Voir plus